| time (UTC) | temp F | wind direction | speed knots | gust knots | rain 1hr in | rain 24hr in | rain mn in | humidity % | barometer mb |
| 20260506091852 | 0 | 340 | 1.7 | 5.2 | 0.05 | 0.04 | 0.04 | 1006.7 | |
| 20260506091351 | 0 | 332 | 3.5 | 3.5 | 0.05 | 0.04 | 0.04 | 1006.5 | |
| 20260506090848 | 0 | 307 | 1.7 | 2.6 | 0.00 | 0.03 | 0.03 | 1006.6 | |
| 20260506090345 | 0 | 65 | 0.0 | 1.7 | 0.07 | 0.03 | 0.03 | 1006.2 | |
| 20260506085842 | 0 | 209 | 0.0 | 0.9 | 0.07 | 0.03 | 0.03 | 1006.2 | |
| 20260506085338 | 0 | 309 | 0.0 | 0.0 | 0.00 | 0.02 | 0.02 | 1006.5 | |
| 20260506084835 | 0 | 309 | 0.0 | 0.9 | 0.05 | 0.02 | 0.02 | 1006.5 | |
| 20260506084332 | 0 | 308 | 0.0 | 0.0 | 0.05 | 0.02 | 0.02 | 1006.6 | |
| 20260506083828 | 0 | 305 | 0.9 | 0.9 | 0.05 | 0.02 | 0.02 | 1006.5 | |
| 20260506083326 | 0 | 313 | 0.0 | 0.9 | 0.00 | 0.01 | 0.01 | 1006.5 | |
| 20260506082823 | 0 | 304 | 0.0 | 0.0 | 0.00 | 0.01 | 0.01 | 1006.3 | |
| 20260506082319 | 0 | 310 | 1.7 | 1.7 | 0.07 | 0.01 | 0.01 | 1006.5 | |
| 20260506081816 | 0 | 291 | 1.7 | 2.6 | 0.07 | 0.01 | 0.01 | 1006.5 | |
| 20260506081314 | 0 | 183 | 0.0 | 0.0 | 0.00 | 0.00 | 0.00 | 1006.3 | |
| 20260506080811 | 0 | 183 | 0.0 | 0.9 | 0.00 | 0.00 | 0.00 | 1006.2 | |
| 20260506080307 | 0 | 153 | 0.9 | 1.7 | 0.00 | 0.00 | 0.00 | 1006.0 | |
| 20260506073251 | 0 | 240 | 1.7 | 1.7 | 0.00 | 0.00 | 0.00 | 1006.5 | |
| 20260506072748 | 0 | 167 | 0.0 | 0.0 | 0.00 | 0.00 | 0.00 | 1006.2 | |
| 20260506072246 | 0 | 166 | 0.0 | 0.0 | 0.00 | 0.00 | 0.00 | 1006.3 | |
| 20260506071744 | 0 | 161 | 0.9 | 0.9 | 0.00 | 0.00 | 0.00 | 1006.3 | |
| 20260506071241 | 0 | 148 | 0.0 | 0.9 | 0.00 | 0.00 | 0.00 | 1006.6 | |
| 20260506070738 | 0 | 171 | 0.9 | 0.9 | 0.00 | 0.00 | 0.00 | 1006.4 | |
| 20260506070235 | 0 | 139 | 0.0 | 0.0 | 0.00 | 0.00 | 0.00 | 1006.6 | |
| 20260506062212 | 0 | 251 | 2.6 | 2.6 | 0.00 | 0.00 | 0.00 | 1007.4 | |
| 20260506061708 | 0 | 115 | 0.9 | 1.7 | 0.00 | 0.00 | 0.00 | 1007.2 | |
| 20260506061205 | 0 | 78 | 0.0 | 0.9 | 0.00 | 0.00 | 0.00 | 1007.4 | |
| 20260506060704 | 0 | 275 | 3.5 | 3.5 | 0.00 | 0.00 | 0.00 | 1007.8 | |
| 20260506060201 | 0 | 252 | 0.0 | 1.7 | 0.00 | 0.00 | 0.00 | 1007.7 | |
| 20260506051132 | 0 | 227 | 0.0 | 0.0 | 0.00 | 0.00 | 0.00 | 1008.4 | |
| 20260506050631 | 0 | 208 | 0.0 | 0.0 | 0.00 | 0.00 | 0.00 | 1008.4 | |
| 20260506050128 | 0 | 230 | 0.9 | 0.9 | 0.00 | 0.00 | 0.00 | 1008.4 | |
| 20260506045121 | 0 | 204 | 0.0 | 0.0 | 0.00 | 0.00 | 0.00 | 1008.3 | |
| 20260506044619 | 0 | 218 | 0.0 | 0.0 | 0.00 | 0.00 | 0.00 | 1008.5 | |
| 20260506044115 | 0 | 321 | 0.0 | 0.0 | 0.00 | 0.00 | 0.00 | 1008.4 | |
| 20260506043613 | 0 | 296 | 0.0 | 0.0 | 0.00 | 0.00 | 0.00 | 1008.3 | |
| 20260506043111 | 0 | 325 | 0.0 | 0.0 | 0.00 | 0.00 | 0.00 | 1008.3 | |
| 20260506042610 | 0 | 296 | 0.0 | 0.0 | 0.00 | 0.00 | 0.00 | 1008.2 | |
| 20260506042107 | 0 | 296 | 0.0 | 0.0 | 0.00 | 0.00 | 0.00 | 1007.9 | |
| 20260506041606 | 0 | 236 | 0.9 | 0.9 | 0.00 | 0.00 | 0.00 | 1007.9 | |
| 20260506041102 | 0 | 297 | 0.0 | 0.0 | 0.00 | 0.00 | 0.00 | 1008.1 | |
| 20260506040600 | 0 | 276 | 0.0 | 0.0 | 0.00 | 0.00 | 0.00 | 1008.5 | |
| 20260506040056 | 0 | 277 | 0.9 | 0.9 | 0.00 | 0.00 | 0.00 | 1008.3 | |
| 20260506035553 | 0 | 335 | 0.9 | 1.7 | 0.00 | 0.33 | 0.33 | 1008.3 | |
| 20260506035050 | 0 | 236 | 0.9 | 1.7 | 0.00 | 0.33 | 0.33 | 1008.5 | |
| 20260506034547 | 0 | 150 | 0.0 | 0.9 | 0.00 | 0.33 | 0.33 | 1008.4 | |
| 20260506034044 | 0 | 209 | 0.0 | 0.9 | 0.00 | 0.33 | 0.33 | 1008.8 | |
| 20260506033541 | 0 | 262 | 0.9 | 2.6 | 0.00 | 0.33 | 0.33 | 1008.8 | |
| 20260506033038 | 0 | 268 | 0.9 | 0.9 | 0.00 | 0.33 | 0.33 | 1009.0 | |
| 20260506032535 | 0 | 273 | 1.7 | 1.7 | 0.00 | 0.33 | 0.33 | 1008.8 | |
| 20260506032032 | 0 | 279 | 0.9 | 3.5 | 0.00 | 0.33 | 0.33 | 1008.8 | |
| 20260506031530 | 0 | 318 | 0.9 | 1.7 | 0.00 | 0.33 | 0.33 | 1008.8 | |
| 20260506031026 | 0 | 258 | 0.0 | 1.7 | 0.00 | 0.33 | 0.33 | 1008.9 | |
| 20260506030525 | 0 | 51 | 0.0 | 0.0 | 0.00 | 0.33 | 0.33 | 1009.0 | |
| 20260506030021 | 0 | 51 | 0.0 | 0.9 | 0.00 | 0.33 | 0.33 | 1009.0 | |
| 20260506025518 | 0 | 51 | 0.0 | 0.9 | 0.05 | 0.33 | 0.33 | 1009.2 | |
| 20260506025014 | 0 | 50 | 0.0 | 0.9 | 0.05 | 0.33 | 0.33 | 1009.1 | |
| 20260506024512 | 0 | 51 | 1.7 | 2.6 | 0.00 | 0.32 | 0.32 | 1008.4 | |
| 20260506024008 | 0 | 268 | 0.0 | 0.0 | 0.00 | 0.32 | 0.32 | 1009.2 | |
| 20260506023504 | 0 | 266 | 0.9 | 0.9 | 0.00 | 0.32 | 0.32 | 1009.3 | |
| 20260506023001 | 0 | 305 | 1.7 | 1.7 | 0.00 | 0.32 | 0.32 | 1009.2 | |
| 20260506022459 | 0 | 277 | 0.0 | 0.0 | 0.00 | 0.32 | 0.32 | 1009.2 | |
| 20260506021956 | 0 | 329 | 0.9 | 2.6 | 0.00 | 0.32 | 0.32 | 1009.0 | |
| 20260506021454 | 0 | 324 | 0.9 | 1.7 | 0.00 | 0.32 | 0.32 | 1009.1 | |
| 20260506020951 | 0 | 352 | 0.0 | 0.9 | 0.00 | 0.32 | 0.32 | 1008.8 | |
| 20260506020448 | 0 | 20 | 0.9 | 3.5 | 0.00 | 0.32 | 0.32 | 1008.9 | |
| 20260506015945 | 0 | 348 | 1.7 | 6.1 | 0.00 | 0.32 | 0.32 | 1008.4 | |
| 20260506015443 | 0 | 313 | 3.5 | 3.5 | 0.00 | 0.32 | 0.32 | 1008.2 | |
| 20260506014939 | 0 | 336 | 3.5 | 3.5 | 0.00 | 0.32 | 0.32 | 1008.3 | |
| 20260506014437 | 0 | 331 | 5.2 | 7.0 | 0.00 | 0.32 | 0.32 | 1008.4 | |
| 20260506013933 | 0 | 319 | 2.6 | 5.2 | 0.00 | 0.32 | 0.32 | 1008.3 | |
| 20260506013431 | 0 | 327 | 4.3 | 5.2 | 0.00 | 0.32 | 0.32 | 1008.2 | |
| 20260506012927 | 0 | 318 | 0.9 | 1.7 | 0.00 | 0.32 | 0.32 | 1008.4 | |
| 20260506012424 | 0 | 316 | 0.9 | 0.9 | 0.00 | 0.32 | 0.32 | 1008.1 | |
| 20260506011921 | 0 | 316 | 0.0 | 0.9 | 0.00 | 0.32 | 0.32 | 1008.0 | |
| 20260506011418 | 0 | 307 | 0.9 | 0.9 | 0.00 | 0.32 | 0.32 | 1008.0 | |
| 20260506010915 | 0 | 304 | 2.6 | 3.5 | 0.00 | 0.32 | 0.32 | 1008.0 | |
| 20260506010414 | 0 | 317 | 2.6 | 3.5 | 0.00 | 0.32 | 0.32 | 1007.8 | |
| 20260506005909 | 0 | 328 | 2.6 | 2.6 | 0.00 | 0.32 | 0.32 | 1008.2 | |
| 20260506005408 | 0 | 51 | 0.0 | 0.9 | 0.00 | 0.32 | 0.32 | 1008.2 | |
| 20260506004902 | 0 | 341 | 0.9 | 1.7 | 0.00 | 0.32 | 0.32 | 1008.2 | |
| 20260506004401 | 0 | 301 | 0.0 | 0.9 | 0.00 | 0.32 | 0.32 | 1008.1 | |
| 20260506003856 | 0 | 314 | 2.6 | 3.5 | 0.00 | 0.32 | 0.32 | 1008.4 | |
| 20260506003353 | 0 | 324 | 6.1 | 6.1 | 0.00 | 0.32 | 0.32 | 1008.3 | |
| 20260506002849 | 0 | 287 | 6.1 | 7.0 | 0.00 | 0.32 | 0.32 | 1008.2 | |
| 20260506002345 | 0 | 36 | 0.9 | 1.7 | 0.00 | 0.32 | 0.32 | 1008.1 | |
| 20260506001841 | 0 | 343 | 2.6 | 5.2 | 0.00 | 0.32 | 0.32 | 1007.8 | |
| 20260506001338 | 0 | 4 | 3.5 | 5.2 | 0.00 | 0.32 | 0.32 | 1007.4 | |
| 20260506000835 | 0 | 315 | 5.2 | 6.1 | 0.00 | 0.32 | 0.32 | 1007.2 | |
| 20260506000333 | 0 | 346 | 7.0 | 9.6 | 0.00 | 0.32 | 0.32 | 1007.1 | |
| 20260505235830 | 0 | 319 | 5.2 | 13.0 | 0.07 | 0.32 | 0.32 | 1007.2 | |
| 20260505235327 | 0 | 336 | 7.8 | 9.6 | 0.14 | 0.32 | 0.32 | 1007.0 | |
| 20260505234824 | 0 | 345 | 7.8 | 11.3 | 0.12 | 0.31 | 0.31 | 1007.0 | |
| 20260505234322 | 0 | 308 | 8.7 | 13.9 | 0.05 | 0.30 | 0.30 | 1007.0 | |
| 20260505233819 | 0 | 272 | 6.1 | 7.0 | 0.42 | 0.29 | 0.29 | 1006.9 | |
| 20260505233317 | 0 | 302 | 4.3 | 5.2 | 0.59 | 0.26 | 0.26 | 1006.6 | |
| 20260505232813 | 0 | 283 | 1.7 | 2.6 | 0.71 | 0.22 | 0.22 | 1006.4 | |
| 20260505232311 | 0 | 272 | 3.5 | 6.1 | 0.85 | 0.16 | 0.16 | 1006.6 | |
| 20260505231808 | 0 | 281 | 3.5 | 3.5 | 0.42 | 0.09 | 0.09 | 1006.5 | |
| 20260505231306 | 0 | 191 | 3.5 | 5.2 | 0.00 | 0.02 | 0.02 | 1006.2 | |
| 20260505230804 | 0 | 301 | 1.7 | 2.6 | 0.00 | 0.02 | 0.02 | 1005.4 | |
| 20260505230300 | 0 | 313 | 2.6 | 3.5 | 0.00 | 0.02 | 0.02 | 1005.2 | |
| 20260505225757 | 0 | 311 | 1.7 | 3.5 | 0.00 | 0.02 | 0.02 | 1005.3 | |
| 20260505225254 | 0 | 295 | 3.5 | 3.5 | 0.00 | 0.02 | 0.02 | 1005.2 | |
| 20260505224749 | 0 | 293 | 2.6 | 2.6 | 0.00 | 0.02 | 0.02 | 1005.4 | |
| 20260505224247 | 0 | 279 | 0.0 | 1.7 | 0.00 | 0.02 | 0.02 | 1005.3 | |
| 20260505223744 | 0 | 191 | 0.9 | 0.9 | 0.00 | 0.02 | 0.02 | 1005.4 | |
| 20260505223241 | 0 | 289 | 1.7 | 1.7 | 0.00 | 0.02 | 0.02 | 1005.4 | |
| 20260505222737 | 0 | 76 | 0.9 | 0.9 | 0.00 | 0.02 | 0.02 | 1005.0 | |
| 20260505222233 | 0 | 278 | 0.0 | 0.9 | 0.00 | 0.02 | 0.02 | 1005.2 | |
| 20260505221730 | 0 | 287 | 0.9 | 1.7 | 0.00 | 0.02 | 0.02 | 1005.0 | |
| 20260505221227 | 0 | 298 | 1.7 | 1.7 | 0.00 | 0.02 | 0.02 | 1005.1 | |
| 20260505220724 | 0 | 219 | 1.7 | 2.6 | 0.00 | 0.02 | 0.02 | 1005.1 | |
| 20260505220221 | 0 | 278 | 1.7 | 6.1 | 0.00 | 0.02 | 0.02 | 1005.0 | |
| 20260505215719 | 0 | 262 | 3.5 | 5.2 | 0.00 | 0.02 | 0.02 | 1005.0 | |
| 20260505215217 | 0 | 301 | 1.7 | 2.6 | 0.00 | 0.02 | 0.02 | 1005.1 | |
| 20260505214714 | 0 | 265 | 1.7 | 2.6 | 0.00 | 0.02 | 0.02 | 1005.0 | |
| 20260505214212 | 0 | 290 | 3.5 | 5.2 | 0.00 | 0.02 | 0.02 | 1005.1 | |
| 20260505213709 | 0 | 268 | 4.3 | 5.2 | 0.00 | 0.02 | 0.02 | 1004.8 | |
| 20260505213206 | 0 | 279 | 3.5 | 6.1 | 0.00 | 0.02 | 0.02 | 1004.8 | |
| 20260505212702 | 0 | 238 | 1.7 | 1.7 | 0.00 | 0.02 | 0.02 | 1004.4 | |
| 20260505212159 | 0 | 165 | 0.0 | 1.7 | 0.00 | 0.02 | 0.02 | 1004.6 | |
| 20260505211656 | 0 | 167 | 3.5 | 7.0 | 0.00 | 0.02 | 0.02 | 1004.5 | |
| 20260505211153 | 0 | 156 | 1.7 | 2.6 | 0.00 | 0.02 | 0.02 | 1004.5 | |
| 20260505210650 | 0 | 174 | 0.0 | 3.5 | 0.00 | 0.02 | 0.02 | 1004.7 | |
| 20260505210147 | 0 | 156 | 0.9 | 7.0 | 0.00 | 0.02 | 0.02 | 1004.6 | |
| 20260505205644 | 0 | 102 | 1.7 | 5.2 | 0.00 | 0.02 | 0.02 | 1004.6 | |
| 20260505205142 | 0 | 130 | 4.3 | 5.2 | 0.00 | 0.02 | 0.02 | 1004.5 | |
| 20260505204639 | 0 | 161 | 2.6 | 5.2 | 0.00 | 0.02 | 0.02 | 1004.7 | |
| 20260505204137 | 0 | 124 | 2.6 | 5.2 | 0.00 | 0.02 | 0.02 | 1004.6 | |
| 20260505203633 | 0 | 132 | 2.6 | 5.2 | 0.00 | 0.02 | 0.02 | 1004.6 | |
| 20260505203130 | 0 | 130 | 3.5 | 8.7 | 0.00 | 0.02 | 0.02 | 1004.6 | |
| 20260505202626 | 0 | 116 | 1.7 | 7.0 | 0.00 | 0.02 | 0.02 | 1005.0 | |
| 20260505202122 | 0 | 142 | 3.5 | 6.1 | 0.00 | 0.02 | 0.02 | 1005.3 | |
| 20260505201619 | 0 | 122 | 3.5 | 6.1 | 0.00 | 0.02 | 0.02 | 1005.2 | |
| 20260505201117 | 0 | 127 | 3.5 | 6.1 | 0.00 | 0.02 | 0.02 | 1005.5 | |
| 20260505200614 | 0 | 84 | 1.7 | 7.0 | 0.00 | 0.02 | 0.02 | 1005.4 | |
| 20260505200111 | 0 | 107 | 4.3 | 8.7 | 0.00 | 0.02 | 0.02 | 1005.6 | |
| 20260505195607 | 0 | 128 | 4.3 | 11.3 | 0.00 | 0.02 | 0.02 | 1005.5 | |
| 20260505195105 | 0 | 113 | 6.1 | 9.6 | 0.00 | 0.02 | 0.02 | 1005.4 | |
| 20260505194602 | 0 | 139 | 5.2 | 7.0 | 0.00 | 0.02 | 0.02 | 1005.5 | |
| 20260505194058 | 0 | 245 | 0.0 | 0.9 | 0.00 | 0.02 | 0.02 | 1005.2 | |
| 20260505193555 | 0 | 312 | 0.9 | 0.9 | 0.00 | 0.02 | 0.02 | 1005.3 | |
| 20260505193052 | 0 | 294 | 0.0 | 0.9 | 0.00 | 0.02 | 0.02 | 1005.2 | |
| 20260505192550 | 0 | 274 | 0.9 | 1.7 | 0.00 | 0.02 | 0.02 | 1005.0 | |
| 20260505192047 | 0 | 291 | 2.6 | 2.6 | 0.00 | 0.02 | 0.02 | 1004.9 | |
| 20260505191546 | 0 | 299 | 3.5 | 5.2 | 0.00 | 0.02 | 0.02 | 1005.2 | |
| 20260505191043 | 0 | 292 | 3.5 | 5.2 | 0.00 | 0.02 | 0.02 | 1005.2 | |
| 20260505190537 | 0 | 289 | 4.3 | 6.1 | 0.00 | 0.02 | 0.02 | 1005.0 | |
| 20260505190034 | 0 | 340 | 3.5 | 3.5 | 0.00 | 0.02 | 0.02 | 1005.0 | |
| 20260505185531 | 0 | 318 | 2.6 | 5.2 | 0.00 | 0.02 | 0.02 | 1005.0 | |
| 20260505185027 | 0 | 344 | 4.3 | 7.0 | 0.05 | 0.02 | 0.02 | 1005.1 | |
| 20260505184524 | 0 | 303 | 4.3 | 6.1 | 0.05 | 0.02 | 0.02 | 1004.8 | |
| 20260505184021 | 0 | 323 | 5.2 | 7.0 | 0.07 | 0.01 | 0.01 | 1005.1 | |
| 20260505183518 | 0 | 336 | 9.6 | 13.9 | 0.07 | 0.01 | 0.01 | 1005.2 | |
| 20260505183015 | 0 | 314 | 11.3 | 16.5 | 0.00 | 0.00 | 0.00 | 1005.0 | |
| 20260505182506 | 0 | 295 | 14.8 | 18.2 | 0.00 | 0.00 | 0.00 | 1004.6 | |
| 20260505182002 | 0 | 234 | 2.6 | 6.1 | 0.00 | 0.00 | 0.00 | 1003.9 | |
| 20260505181459 | 0 | 2 | 0.9 | 5.2 | 0.00 | 0.00 | 0.00 | 1003.8 | |
| 20260505180956 | 0 | 6 | 3.5 | 9.6 | 0.00 | 0.00 | 0.00 | 1003.6 | |
| 20260505180452 | 0 | 251 | 10.4 | 15.6 | 0.00 | 0.00 | 0.00 | 1003.9 | |
| 20260505175949 | 0 | 169 | 3.5 | 13.9 | 0.00 | 0.00 | 0.00 | 1003.9 | |
| 20260505175445 | 0 | 138 | 9.6 | 12.2 | 0.00 | 0.00 | 0.00 | 1003.8 | |
| 20260505174942 | 0 | 229 | 6.1 | 7.0 | 0.00 | 0.00 | 0.00 | 1004.1 | |
| 20260505174439 | 0 | 236 | 7.8 | 12.2 | 0.00 | 0.00 | 0.00 | 1004.1 | |
| 20260505173935 | 0 | 272 | 5.2 | 7.0 | 0.00 | 0.00 | 0.00 | 1004.0 | |
| 20260505173431 | 0 | 294 | 1.7 | 5.2 | 0.00 | 0.00 | 0.00 | 1004.4 | |
| 20260505172929 | 0 | 242 | 1.7 | 6.1 | 0.00 | 0.00 | 0.00 | 1004.5 | |
| 20260505172427 | 0 | 199 | 1.7 | 6.1 | 0.00 | 0.00 | 0.00 | 1004.5 | |
| 20260505171926 | 0 | 245 | 1.7 | 6.1 | 0.00 | 0.00 | 0.00 | 1004.7 | |
| 20260505171423 | 0 | 286 | 4.3 | 9.6 | 0.00 | 0.00 | 0.00 | 1004.6 | |
| 20260505170920 | 0 | 159 | 1.7 | 6.1 | 0.00 | 0.00 | 0.00 | 1004.7 | |
| 20260505170416 | 0 | 186 | 2.6 | 6.1 | 0.00 | 0.00 | 0.00 | 1004.4 | |
| 20260505165912 | 0 | 237 | 3.5 | 9.6 | 0.00 | 0.00 | 0.00 | 1004.6 | |
| 20260505165408 | 0 | 142 | 1.7 | 11.3 | 0.00 | 0.00 | 0.00 | 1004.6 | |
| 20260505164903 | 0 | 198 | 2.6 | 7.0 | 0.00 | 0.00 | 0.00 | 1004.2 | |
| 20260505164400 | 0 | 316 | 1.7 | 9.6 | 0.00 | 0.00 | 0.00 | 1004.1 | |
| 20260505163858 | 0 | 265 | 9.6 | 11.3 | 0.00 | 0.00 | 0.00 | 1004.0 | |
| 20260505163357 | 0 | 189 | 5.2 | 7.8 | 0.00 | 0.00 | 0.00 | 1004.1 | |
| 20260505162855 | 0 | 217 | 7.8 | 12.2 | 0.00 | 0.00 | 0.00 | 1004.1 | |
| 20260505162351 | 0 | 203 | 6.1 | 13.9 | 0.00 | 0.00 | 0.00 | 1003.7 | |
| 20260505161848 | 0 | 112 | 9.6 | 14.8 | 0.00 | 0.00 | 0.00 | 1003.8 | |
| 20260505161345 | 0 | 139 | 0.0 | 1.7 | 0.00 | 0.00 | 0.00 | 1004.2 | |
| 20260505160842 | 0 | 144 | 6.1 | 8.7 | 0.00 | 0.00 | 0.00 | 1003.9 | |
| 20260505160340 | 0 | 144 | 3.5 | 7.8 | 0.00 | 0.00 | 0.00 | 1004.2 | |
| 20260505153319 | 0 | 296 | 5.2 | 7.8 | 0.00 | 0.00 | 0.00 | 1004.6 | |
| 20260505152816 | 0 | 230 | 2.6 | 7.0 | 0.00 | 0.00 | 0.00 | 1004.6 | |
| 20260505152313 | 0 | 170 | 5.2 | 7.0 | 0.00 | 0.00 | 0.00 | 1004.5 | |
| 20260505151808 | 0 | 209 | 6.1 | 8.7 | 0.00 | 0.00 | 0.00 | 1004.3 | |
| 20260505151305 | 0 | 277 | 4.3 | 7.8 | 0.00 | 0.00 | 0.00 | 1004.2 | |
| 20260505150802 | 0 | 176 | 11.3 | 13.9 | 0.00 | 0.00 | 0.00 | 1004.4 | |
| 20260505150259 | 0 | 129 | 7.8 | 12.2 | 0.00 | 0.00 | 0.00 | 1004.3 | |
| 20260505140228 | 0 | 133 | 11.3 | 13.0 | 0.00 | 0.00 | 0.00 | 1004.0 | |
| 20260505130152 | 0 | 155 | 8.7 | 11.3 | 0.00 | 0.00 | 0.00 | 1004.9 | |
| 20260505124642 | 0 | 180 | 7.8 | 8.7 | 0.00 | 0.00 | 0.00 | 1004.9 | |
| 20260505124139 | 0 | 146 | 9.6 | 13.0 | 0.00 | 0.00 | 0.00 | 1004.9 | |
| 20260505123635 | 0 | 99 | 7.0 | 13.0 | 0.00 | 0.00 | 0.00 | 1004.9 | |
| 20260505123132 | 0 | 106 | 3.5 | 8.7 | 0.00 | 0.00 | 0.00 | 1005.0 | |
| 20260505122628 | 0 | 126 | 4.3 | 5.2 | 0.00 | 0.00 | 0.00 | 1005.0 | |
| 20260505122126 | 0 | 126 | 5.2 | 9.6 | 0.00 | 0.00 | 0.00 | 1004.8 | |
| 20260505121622 | 0 | 159 | 3.5 | 5.2 | 0.00 | 0.00 | 0.00 | 1005.1 | |
| 20260505121119 | 0 | 153 | 1.7 | 3.5 | 0.00 | 0.00 | 0.00 | 1005.0 | |
| 20260505120615 | 0 | 126 | 4.3 | 7.8 | 0.00 | 0.00 | 0.00 | 1005.0 | |
| 20260505120111 | 0 | 96 | 2.6 | 5.2 | 0.00 | 0.00 | 0.00 | 1004.7 | |
| 20260505115606 | 0 | 104 | 2.6 | 2.6 | 0.00 | 0.00 | 0.00 | 1005.0 | |
| 20260505115103 | 0 | 121 | 3.5 | 6.1 | 0.00 | 0.00 | 0.00 | 1005.2 | |
| 20260505114600 | 0 | 172 | 2.6 | 7.8 | 0.00 | 0.00 | 0.00 | 1005.0 | |
| 20260505114056 | 0 | 96 | 2.6 | 7.0 | 0.00 | 0.00 | 0.00 | 1005.1 | |
| 20260505113553 | 0 | 118 | 2.6 | 6.1 | 0.00 | 0.00 | 0.00 | 1005.0 | |
| 20260505113050 | 0 | 140 | 5.2 | 6.1 | 0.00 | 0.00 | 0.00 | 1005.1 | |
| 20260505112546 | 0 | 115 | 5.2 | 8.7 | 0.00 | 0.00 | 0.00 | 1005.0 | |
| 20260505112044 | 0 | 109 | 2.6 | 7.0 | 0.00 | 0.00 | 0.00 | 1004.8 | |
| 20260505111538 | 0 | 121 | 5.2 | 7.8 | 0.00 | 0.00 | 0.00 | 1004.8 | |
| 20260505111034 | 0 | 121 | 5.2 | 7.0 | 0.00 | 0.00 | 0.00 | 1004.7 | |
| 20260505110531 | 0 | 140 | 6.1 | 7.0 | 0.00 | 0.00 | 0.00 | 1004.4 | |
| 20260505102003 | 0 | 122 | 7.0 | 12.2 | 0.00 | 0.00 | 0.00 | 1004.4 | |
| 20260505101501 | 0 | 127 | 7.0 | 7.0 | 0.00 | 0.00 | 0.00 | 1004.3 | |
| 20260505100957 | 0 | 137 | 5.2 | 7.0 | 0.00 | 0.00 | 0.00 | 1004.4 | |
| 20260505100455 | 0 | 134 | 4.3 | 7.8 | 0.00 | 0.00 | 0.00 | 1004.3 | |
| 20260505095951 | 0 | 90 | 3.5 | 9.6 | 0.00 | 0.00 | 0.00 | 1004.3 | |
| 20260505095448 | 0 | 91 | 3.5 | 5.2 | 0.00 | 0.00 | 0.00 | 1004.3 | |
| 20260505094944 | 0 | 91 | 2.6 | 6.1 | 0.00 | 0.00 | 0.00 | 1004.3 | |
| 20260505094441 | 0 | 117 | 4.3 | 5.2 | 0.00 | 0.00 | 0.00 | 1004.2 | |
| 20260505093936 | 0 | 104 | 2.6 | 5.2 | 0.00 | 0.00 | 0.00 | 1004.2 | |
| 20260505093434 | 0 | 125 | 3.5 | 3.5 | 0.00 | 0.00 | 0.00 | 1004.4 | |
| 20260505092931 | 0 | 92 | 2.6 | 2.6 | 0.00 | 0.00 | 0.00 | 1004.3 | |
| 20260505092428 | 0 | 147 | 3.5 | 5.2 | 0.00 | 0.00 | 0.00 | 1004.3 |